Location: Kalberh�ni
(46.4610°N, 7.2453°E)
Time: 06:25:17
(UTC+00:00)

Cosmos 1802 Rocket - Pass Details

Date: 01 November 2021
Orbit: 955 x 1010 km, 82.9° (Epoch: 05 December)

Event Time Altitude Azimuth Distance (km) Brightness Sun altitude
Rises 20:26:53 0° 250° (WSW) 3,631 7.4 -42.8°
Reaches altitude 10° 20:31:18 10° 280° (W) 2,697 6.9 -43.5°
Maximum altitude 20:33:36 12° 302° (WNW) 2,551 6.7 -43.8°
Drops below altitude 10° 20:35:56 10° 325° (NW) 2,712 6.8 -44.2°
Sets 20:40:26 0° 355° (N) 3,677 7.4 -44.8°
